Regional Weather Roundup
Issued by NWS Wakefield, VA

Home | Current Version | Previous Version | Text Only | Print | Product List | Glossary Off
Versions: 1 2 3 4 5 6 7 8 9 10 11 12 13 14 15 16 17 18 19 20 21 22 23 24 25 26 27

000
ASUS41 KAKQ 291415
RWRAKQ

REGIONAL WEATHER ROUNDUP
NATIONAL WEATHER SERVICE WAKEFIELD VA
1000 AM EDT SUN MAY 29 2016

Note: "fair" indicates few or no clouds below 12,000 feet with no
significant weather and/or obstructions to visibility. * = Denotes
station may not report precipitation (e.g., rain,snow,etc.),
thunder or fog.

VAZ042-051-052>054-056-291500-
NORTHERN VIRGINIA

CITY           SKY/WX    TMP DP  RH WIND       PRES   REMARKS
WASH NATIONAL  PTSUNNY   76  67  73 S8        30.15S
DULLES         PTSUNNY   75  65  70 S3        30.15S
FORT BELVOIR   FAIR      76  67  72 SW5       30.14F
QUANTICO       FAIR      74  67  78 S6        30.15F
FREDERICKSBRG* FAIR      77  68  74 CALM      30.13F
STAFFORD*      FAIR      76  66  70 CALM      30.18F
WARRENTON      FAIR      78  63  58 W3        30.14F
CULPEPER*      FAIR      75  67  77 W3        30.16S
MANASSAS*      SUNNY     75  70  83 S5        30.14F
LEESBURG*      FAIR      79  68  69 S6        30.15F
WINCHESTER     FAIR      77  63  61 SW3       30.15S
FRONT ROYAL*   FAIR      72  64  78 CALM      30.14F
LURAY*         FAIR      72  66  83 S3        30.16S
$$

VAZ048-049-060>072-079>083-291500-
CENTRAL AND SOUTH CENTRAL VIRGINIA

CITY           SKY/WX    TMP DP  RH WIND       PRES   REMARKS
RICHMOND       PTSUNNY   75  68  78 CALM      30.13F
CHESTERFIELD*  FAIR      81  61  50 CALM      30.15S
PETERSBURG*    FAIR      80  68  67 E5        30.14F
HANOVER        FAIR      79  64  60 NE3       30.15F
TAPPAHANNOCK*  FAIR      78  70  77 E3        30.15S
QUINTON*       PTSUNNY   75  70  85 CALM      30.13F
CHARLOTTSVILLE FAIR      76  61  59 CALM      30.15F
GORDONSVILLE*  FAIR      76  67  74 S3        30.14F
ORANGE*        FAIR      77  68  73 SW5       30.16F
LOUISA*        FAIR      79  72  78 CALM      30.14F
BUMPASS*       FAIR      76  69  78 CALM      30.14F
FARMVILLE*     PTSUNNY   73  69  87 CALM      30.14F
CREWE*         CLOUDY    74  70  87 CALM      30.15R
FORT PICKETT*  NOT AVBL
CHASE CITY*    CLOUDY    72  70  95 CALM      30.14F
CLARKSVILLE*   CLOUDY    70  70 100 CALM      30.14S
SOUTH HILL*    PTSUNNY   72  68  87 CALM      30.19S
LAWRENCEVILLE* CLOUDY    75  70  83 CALM      30.13S
EMPORIA*       CLOUDY    73  70  88 NE3       30.14F
$$

VAZ088>098-291500-
SOUTHEAST VIRGINIA

CITY           SKY/WX    TMP DP  RH WIND       PRES   REMARKS
NORFOLK        PTSUNNY   79  70  74 VRB6      30.13S
VIRGINIA BEACH PTSUNNY   82  70  66 SE12      30.13S
NORFOLK NAVAL  PTSUNNY   78  71  79 NE8       30.14F
WEST POINT*    CLOUDY    75  72  89 CALM      30.15F
SALUDA*        CLOUDY    74  72  95 E5        30.14S
NEWPORT NEWS   CLOUDY    79  73  82 E9        30.13F
LANGLEY AFB    PTSUNNY   78  72  83 E7        30.13F
FORT EUSTIS    FAIR      76  67  73 VRB3      30.12S
WILLIAMSBURG*  FAIR      81  72  74 S5        30.14F
HR EXEC AP*    PTSUNNY   81  73  78 SE9       30.14S
FRANKLIN*      CLOUDY    75  70  86 SE6       30.13F
US460-WAKEFLD  PTSUNNY   77  70  79 CALM      30.13S
$$

VAZ020-022-025-037-045-291500-
WEST CENTRAL AND SOUTHWEST VIRGINIA

CITY           SKY/WX    TMP DP  RH WIND       PRES   REMARKS
STAUNTON*      FAIR      74  63  69 S3        30.19S
WAYNESBORO*    FAIR      74  60  61 CALM      30.19R
HOT SPRINGS VA FAIR      67  56  67 CALM      30.27S
LYNCHBURG      CLOUDY    71  64  78 CALM      30.18F
DANVILLE       LGT RAIN  70  67  90 N3        30.15S
SOUTH BOSTON*  CLOUDY    69  68  95 CALM      30.15S
MARTINSVILLE   LGT RAIN  64  62  92 CALM      30.19F
ROANOKE        CLOUDY    70  63  78 W3        30.19F
BLACKSBURG     LGT RAIN  68  61  77 CALM      30.25F
DUBLIN*        CLOUDY    69  63  82 CALM      30.23F
MARION*        CLOUDY    65  62  90 CALM      30.25F
HILLSVILLE*    CLOUDY    65  59  81 CALM      30.22F
RICHLANDS*     LGT RAIN  66  62  86 CALM      30.23S
WISE*          FAIR      72  52  49 CALM      30.23S
ABINGDON*      FAIR      69  61  76 E5        30.22S
$$

MDZ021>025-VAZ099-100-291500-
SOUTHERN MARYLAND AND THE DELMARVA PENINSULA

CITY           SKY/WX    TMP DP  RH WIND       PRES   REMARKS
PATUXENT RIVER PTSUNNY   73  68  84 SE8       30.15S
BAY BRIDGE APT MOSUNNY   73  68  83 W5        30.15S
LEONARDTOWN    MOSUNNY   75  64  69 CALM      30.16S
DOVER          SUNNY     77  69  77 VRB3      30.15S
GEORGETOWN     PTSUNNY   78  70  76 S6        30.16F
EASTON         SUNNY     73  72  94 CALM      30.19
CAMBRIDGE      SUNNY     77  68  73 SE3       30.15S
SALISBURY      MOSUNNY   77  70  79 S9        30.16R
OCEAN CITY     CLOUDY   N/A N/A N/A SE5       30.17S
WALLOPS ISLAND PTSUNNY   76  71  85 SE9       30.17R
ACCOMACK*      CLOUDY    79  70  73 E6        30.16R
$$

NCZ012>017-030>032-291500-
NORTH CENTRAL AND EASTERN NORTH CAROLINA

CITY           SKY/WX    TMP DP  RH WIND       PRES   REMARKS
ROANOKE RAPIDS LGT RAIN  72  72 100 NE3       30.12F
RALEIGH        CLOUDY    71  70  96 NE8       30.11S FOG
ELIZABETH CITY CLOUDY    79  73  82 E13       30.12F
AHOSKIE*       RAIN      71  70  96 CALM      30.12F
EDENTON*       RAIN     N/A N/A N/A E3        30.12S
CURRITUCK*     CLOUDY    81  73  78 SE7       30.14R
KILL DEVIL HLS CLOUDY    81  72  74 E6        30.12S
MANTEO         NOT AVBL
CAPE HATTERAS  PTSUNNY   80  73  79 SE14      30.11S
TARBORO*       RAIN      73  72  95 NE3       30.11F
GOLDSBORO      LGT RAIN  73  73 100 E9        30.07S
WASHINGTON     DRIZZLE   72  71  95 E6        30.09F
GREENVILLE     LGT RAIN  73  73 100 SE6       30.11S
NEW BERN       LGT RAIN  73  72  96 CALM      30.09F FOG
WILMINGTON     PTSUNNY   80  73  79 SE12      30.04R
$$

VAZ048-291500-
ELSEWHERE

CITY           SKY/WX    TMP DP  RH WIND       PRES   REMARKS
HARRISBURG PA  MOSUNNY   77  63  61 E5        30.13F
BALTIMORE      MOSUNNY   78  65  63 SW3       30.14S
ANNAPOLIS      SUNNY     71  67  87 SE10      30.14S
ANDREWS AFB    FAIR      77  68  73 VRB5      30.14F
PHILADELPHIA   PTSUNNY   76  62  62 SW6       30.16S
HENDERSON NC   DRIZZLE   68  65  90 N5        30.13F
GREENSBORO     LGT RAIN  68  66  94 N5        30.14S FOG
ROCKY MOUNT    LGT RAIN  73  72  96 NE6       30.10F
$$

VAZ100-291500-
MARINE

STATION/POSITION TIME  TEMP    WIND        PRES    WAVE   SWELL
                       AIR SEA DIR/SP/G            HT/PER HT/PER
                 (UTC) (F)     (DEG/KT/KT) (MB)    (FT/S) (FT/S)
BRANDYWINE LGT   1300   64     150/  5/  6 1021.7F
CAPE MAY NJ      1300   72 68  100/  3/  4 1021.5R
LEWES DE         1300   73 64  140/  6/  8 1021.4F
15NM E FENWICK I 1350   65 63              1021.6F   3/ 7
OCEAN-CITY-INLET 1300   67 65  110/  1/  3 1021.9R
WACHAPREAGUE VA  1300   74 77  130/  4/  6 1020.6F
THOMAS POINT MD  1400   69 67  180/  2/  2 1022.2F
GOOSES REEF MD   1400   70 69   90/  2/  2 1022.0S   2
COVE POINT MD    1300   68      30/  2/  4 1021.5F
SOLOMONS ISLAND  1300   70 67   90/  6/  6   N/A
BISHOPS HEAD MD  1300   72 73  140/  4/  5 1021.1R
PINEY POINT MD   1306          160/  5/  6   N/A
POTOMAC MD       1400   71 71  120/  4/  6 1020.0S   0
CAMBRIDGE MD     1300   71 69   60/  1/  3 1020.1F
LEWISETTA VA     1300   70 65  100/  6/  7 1020.5F
RAPPAHANNOCK LGT 1300          110/  4/  4 1021.3F
STINGRAY PT      1400   73 71  110/  2/  2 1021.3S   0
YORK RVR RNG VA  1300   72     120/  7/  8 1020.1R
YORKTOWN VA      1300   71 71   80/  7/  8 1020.3S
JAMESTOWN VA     1400   76 74  100/  4/  6   N/A     0
DOMINION TERM VA 1300   70      70/  7/  8 1020.4S
KIPTOPEKE VA     1300      69  130/  7/ 10   N/A
CHES BAY BRIDGE  1300   71 68   80/  5/  7 1020.5R
CAPE HENRY VA    1300   72     110/  6/  8   N/A
CHESAPEAKE LGHT  1300   70     120/ 11/ 12 1021.4R
WILLOUBY STN VA  1300   69      80/  7/  8 1021.3S
CAPE HENRY BUOY  1312      69                N/A     2/ 8
1ST LANDING BUOY 1400   71 70  100/  8/  8 1020.6F   1/ 4
CAPE CHARLES BUO 1326      69                N/A     2/ 8   2/ 5
OFFSHORE WE BUOY 1321      70                N/A     3/ 8   3/ 8
64NM E OF VA BCH 1350   69 64   90/  6/  6 1020.9R   4/ 6   3/ 6
DUCK PIER NC     1300   72 64  100/  8/  9 1019.7R
44100 DUCK FRF   1324      70                N/A     3/ 6
44056 DUCK FRF   1311      69                N/A     3/ 6
OREGON INLET NC  1300   78 70  120/  8/ 10 1020.0R
HATTERAS NC      1300   76 77  130/  9/ 13 1018.9R
DIAMOND SHLS NC  1350   79 76  150/ 17/ 21 1019.2F   6/ 6   2/13
CAPE LOOKOUT C1F1C2F2C3F3C4F4C5F5C6F6C7F7C8M1C9!



USA.gov is the U.S. government's official web portal to all federal, state and local government web resources and services.